Location: Home
(42.5358°N, 72.7383°W)
Time: 09:24:46
(UTC-05:00)

S-56A Canister/Altair - Pass Details

Date: 02 December 2021
Orbit: 634 x 2499 km, 38.9° (Epoch: 22 January)

Event Time Altitude Azimuth Distance (km) Brightness Sun altitude
Rises 22:28:53 0° 214° (SW) 5,553 - -64.7°
Reaches altitude 10° 22:33:31 10° 205° (SSW) 4,256 - -65.2°
Maximum altitude 22:42:12 28° 152° (SSE) 2,452 - -66.2°
Drops below altitude 10° 22:48:32 10° 96° (E) 3,052 - -66.9°
Sets 22:51:15 0° 85° (E) 3,777 - -67.1°
